OSLK

Details ICAO OSLK (LTK)
Name BASSEL AL ASSAD INTL
Region Syria
Timezone Asia/Damascus (UTC+3.0)
Plans Departing 28
Arriving 43
Stats Elevation 157 ft / 48 m (AMSL)
Location 35.401282° 35.948444°
Runways 1
Magnetic Variation 5.177° E
Sunrise 2018-05-26 02:26:27 UTC / 2018-05-26 05:26:27 Local
Sunset 2018-05-26 16:42:54 UTC / 2018-05-26 19:42:54 Local
Advertisement - Login to hide

Runways

ID Width Length Bearing (true) Bearing (mag) Surface Threshold Offset Overrun Length
17 148 ft / 45 m 9,209 ft / 2,807 m 176.62° 171.44° Asphalt 0 ft / 0 m 197 ft / 60 m
35 148 ft / 45 m 9,209 ft / 2,807 m 356.62° 351.44° Asphalt 590 ft / 180 m 0 ft / 0 m

Approach Navaids

Runway Type Ident Frequency Range Bearing (true) Bearing (mag) Slope Elevation
17 Localiser IBA 109.10 MHz 18 nm / 33 km 176.63° 171.45° - 157 ft / 48 m (AMSL)
17 Glidescope IBA 109.10 MHz 10 nm / 19 km 176.62° 171.44° 3.00° 157 ft / 48 m (AMSL)

Map

Weather


0- 5 10 15 20 25 30 35+ Temperature / ° C

Clouds and Precipitation
Forecast for 2018-05-26 18:00 UTC. Updated 44 minutes ago

Ground ~20,000 ft ~40,000 ft Winds

METAR

OSLK 261700Z 20003KT CAVOK 24/17 Q1009

TAF

Not found

Frequencies

Tower 121.90 MHz TWR
Approach 129.60 MHz APP
Tower 118.10 MHz TWR
Approach 120.00 MHz APP
Warning: Do not use this data for real-world aviation or navigation. No guarantee of current accuracy is given.